Location: Newark
(41.9364°N, 2.8061°E)
Time: 01:15:21
(UTC+00:00)

A-11 Canister half - Pass Details

Date: 19 February 2020
Orbit: 1517 x 1683 km, 47.2° (Epoch: 27 March)

Event Time Altitude Azimuth Distance (km) Brightness Sun altitude
Rises 18:57:51 0° 271° (W) 4,872 13.4 -17.7°
Reaches altitude 10° 19:01:05 10° 274° (W) 3,865 12.4 -18.3°
Maximum altitude 19:10:51 65° 356° (N) 1,725 9.2 -20.1°
Enters shadow 19:16:30 28° 70° (ENE) 2,628 9.7 -21.2°
